[[{"header":{"parameterUnit":"m.s-1","parameterCategory":1,"la1":30.2991,"la2":30.254,"lo1":-89.0895,"lo2":-89.0444,"dy":0.0017,"dx":0.0017,"nx":28,"ny":28,"refTime":"2025-12-21T09:00:00:Z","depth":0,"parameterNumber":2,"parameterNumberName":"U-component_of_WINDS"},"data":[0,0,0,0,0,0,0,0,0,0,0,0,0,0,0,0,0,0,0,0,0,0,0,0,0,0,0,0,0,0,0,0,0,0,0,0,0,0,0,0,0,0,0,0,0,0,0,0,0,0,0,0,0,0,0,0,0,0,-5.5188,-5.5189,0,-5.5297,-5.5299,-5.53,-5.519,-5.5186,-5.5181,-5.5177,-5.529,-5.5296,-5.5303,0,0,0,0,0,0,0,0,0,0,0,0,0,-5.4887,-5.4893,-5.5188,-5.519,-5.5191,-5.5297,-5.5299,-5.53,-5.5191,-5.5185,-5.518,-5.5175,-5.5287,-5.5296,-5.5304,0,0,0,0,0,0,0,0,0,0,0,0,0,-5.5009,-5.4895,-5.5188,-5.5149,-5.5147,-5.5297,-5.5299,-5.5301,-5.5192,-5.5185,-5.5179,-5.5173,-5.5285,-5.5295,-5.5305,-5.55,0,0,-5.5337,-5.5342,0,0,0,0,0,0,0,0,-5.5003,-5.502,-5.5153,-5.5152,-5.515,-5.5223,-5.5234,-5.5367,-5.5193,-5.5175,-5.5177,-5.517,-5.5273,-5.5284,-5.5319,-5.5505,-5.551,-5.5338,-5.5345,-5.5349,-5.5352,0,0,0,0,0,0,0,-5.4994,-5.5015,-5.5231,-5.5155,-5.5153,-5.5127,-5.5137,-5.5259,-5.5259,-5.5176,-5.5168,-5.5182,-5.5271,-5.5309,-5.532,-5.5511,-5.5338,-5.5347,-5.5354,-5.5358,-5.5865,-5.5871,0,0,0,0,0,0,-5.499,-5.5009,-5.5228,-5.5235,-5.5059,-5.5138,-5.5149,-5.5206,-5.5257,-5.5259,-5.5188,-5.5177,-5.5294,-5.5308,-5.5324,-5.5556,-5.5349,-5.5359,-5.5365,-5.5857,-5.5866,-5.5874,0,0,0,0,0,0,-5.4984,-5.501,-5.5223,-5.512,-5.5145,-5.515,-5.5215,-5.5212,-5.525,-5.5266,-5.5266,-5.5227,-5.5289,-5.5309,-5.5457,-5.5558,-5.5364,-5.5373,-5.5849,-5.586,-5.587,-5.6021,0,0,0,0,0,0,-5.4976,-5.5009,-5.5082,-5.5122,-5.5151,-5.5355,-5.5221,-5.5219,-5.5268,-5.5255,-5.5303,-5.5304,-5.5286,-5.5442,-5.5468,-5.5569,-5.5381,-5.584,-5.5854,-5.5867,-5.6007,-5.6036,-5.606,0,0,0,0,0,-5.4965,-5.512,-5.5086,-5.5113,-5.5242,-5.5361,-5.5377,-5.5352,-5.5277,-5.5351,-5.5362,-5.5303,-5.5543,-5.5458,-5.5486,-5.5592,-5.5833,-5.585,-5.5866,-5.5995,-5.603,-5.606,0,0,0,0,0,0,-5.5091,-5.5124,-5.5087,-5.5259,-5.5308,-5.5342,-5.5434,-5.539,-5.5461,-5.5446,-5.5413,-5.5424,-5.5581,-5.5601,-5.5506,-5.5784,-5.5676,-5.5699,-5.5765,-5.5798,-5.5824,-5.5816,-5.539,0,0,0,0,0,-5.5139,-5.5232,-5.5256,-5.5405,-5.5432,-5.543,-5.548,-5.5457,-5.5506,-5.5526,-5.5548,-5.5598,-5.5685,-5.5743,-5.5823,-5.601,-5.6019,-5.6097,-5.6123,-5.6145,-5.6165,-5.6267,-5.6302,-5.5927,-5.5927,-5.5926,0,0,-5.5238,-5.5268,-5.5328,-5.5432,-5.5466,-5.5564,-5.5447,-5.5555,-5.5627,-5.5542,-5.5683,-5.5702,-5.5756,-5.5924,-5.6,-5.5946,-5.6271,-5.6166,-5.6183,-5.6191,-5.6287,-5.6322,-5.6354,-5.5938,-5.5936,-5.5934,0,0,-5.5469,-5.5501,-5.563,-5.5668,-5.5723,-5.572,-5.5752,-5.5793,-5.5802,-5.5943,-5.5882,-5.5968,-5.6118,-5.616,-5.6201,-5.6451,-5.64,-5.6479,-5.6617,-5.6717,-5.6746,-5.6772,-5.6863,-5.6895,-5.6498,-5.6499,-5.6499,0,-5.5586,-5.573,-5.5702,-5.5815,-5.5863,-5.5791,-5.5922,-5.5961,-5.6039,-5.6074,-5.6013,-5.6202,-5.6233,-5.6411,-5.6473,-5.6508,-5.6543,-5.6473,-5.6744,-5.677,-5.6794,-5.688,-5.6914,-5.6508,-5.6507,-5.6506,-5.6505,0,-5.5872,-5.5973,-5.6071,-5.6149,-5.6208,-5.633,-5.6321,-5.6384,-5.6357,-5.6362,-5.6508,-5.6544,-5.6631,-5.6672,-5.6646,-5.6848,-5.6813,-5.6749,-5.6639,-5.684,-5.692,-5.6952,-5.6521,-5.6518,-5.6515,-5.6513,0,0,-5.6183,-5.6246,-5.6283,-5.6318,-5.6375,-5.6453,-5.6573,-5.6658,-5.6714,-5.6772,-5.6872,-5.7002,-5.6944,-5.699,-5.6969,-5.7057,-5.7255,-5.6982,-5.6983,-5.7032,-5.748,-5.7528,-5.7566,-5.7221,-5.7227,-5.7232,-5.7476,0,-5.6416,-5.6623,-5.6602,-5.6799,-5.6893,-5.6828,-5.6933,-5.698,-5.6988,-5.707,-5.7079,-5.7172,-5.7088,-5.7116,-5.72,-5.7213,-5.7344,-5.7195,-5.7315,-5.7319,-5.7303,-5.7608,-5.7658,-5.7886,-5.7507,-5.7512,-5.7516,0,-5.6715,-5.6784,-5.6991,-5.7036,-5.7074,-5.7168,-5.7247,-5.7326,-5.7378,-5.7378,-5.7432,-5.7397,-5.7518,-5.7407,-5.7574,-5.7473,-5.7521,-5.7536,-5.7544,-5.7554,-5.7429,-5.7627,-5.7958,-5.7993,-5.7565,-5.7561,-5.7557,0,-5.6922,-5.7067,-5.721,-5.7243,-5.7298,-5.7366,-5.7392,-5.7438,-5.7492,-5.7561,-5.7596,-5.7679,-5.7724,-5.7789,-5.7777,-5.7697,-5.7949,-5.7836,-5.7953,-5.7953,-5.8008,-5.8005,-5.8352,-5.804,-5.8039,-5.8038,-5.8038,0,-5.7185,-5.7314,-5.7304,-5.7392,-5.7536,-5.7512,-5.7655,-5.7673,-5.7715,-5.7806,-5.7755,-5.7842,-5.7821,-5.7907,-5.7899,-5.804,-5.8061,-5.8065,-5.8061,-5.8069,-5.8069,-5.81,-5.8084,-5.8047,-5.8045,-5.8044,-5.8042,0,-5.7439,-5.7438,-5.759,-5.7631,-5.7644,-5.7748,-5.7784,-5.7867,-5.7873,-5.7989,-5.8015,-5.8023,-5.8123,-5.8118,-5.823,-5.8224,-5.8398,-5.8376,-5.8381,-5.8376,-5.8493,-5.8482,-5.8873,-5.8923,-5.8578,-5.8581,-5.8584,0,-5.7606,-5.7705,-5.7757,-5.7815,-5.7846,-5.7939,-5.7994,-5.7976,-5.8035,-5.8105,-5.8181,-5.8275,-5.835,-5.8512,-5.8529,-5.8615,-5.8595,-5.8726,-5.8607,-5.8613,-5.8597,-5.8592,-5.8602,-5.8749,-5.8753,-5.8756,-5.8758,0,-5.7904,-5.7899,-5.798,-5.8064,-5.8131,-5.8196,-5.8254,-5.8304,-5.8292,-5.8362,-5.8464,-5.8522,-5.8638,-5.8733,-5.8817,-5.8844,-5.8801,-5.8796,-5.8828,-5.8837,-5.8836,-5.8839,-5.8444,-5.8787,-5.8784,-5.8782,-5.878,-5.8779,-5.812,-5.8205,-5.8256,-5.8349,-5.8392,-5.8449,-5.853,-5.8546,-5.8631,-5.8724,-5.8708,-5.8822,-5.8875,-5.8982,-5.9018,-5.9107,-5.9061,-5.9106,-5.9118,-5.9129,-5.9143,-5.8822,-5.9122,-5.9122,-5.9121,-5.912,-5.912,0,-5.8414,-5.8445,-5.8531,-5.8616,-5.869,-5.8643,-5.8707,-5.8772,-5.8873,-5.8926,-5.9002,-5.912,-5.9213,-5.9238,-5.9328,-5.9395,-5.9377,-5.9419,-5.9414,-5.9421,-5.9179,-5.9143,-5.9432,-5.9432,-5.9432,-5.9432,-5.9432,-5.9432,-5.8576,-5.8718,-5.872,-5.8884,-5.8913,-5.9025,-5.9065,-5.9118,-5.9161,-5.9295,-5.9372,-5.9388,-5.9431,-5.9524,-5.9608,-5.9613,-5.9649,-5.9699,-5.9696,-5.9469,-5.9438,-5.9408,-5.9374,-5.9707,-5.9707,-5.993,-5.9933,-5.9934]},{"header":{"parameterUnit":"m.s-1","parameterCategory":1,"la1":30.2991,"la2":30.254,"lo1":-89.0895,"lo2":-89.0444,"dy":0.0017,"dx":0.0017,"nx":28,"ny":28,"refTime":"2025-12-21T09:00:00:Z","depth":0,"parameterNumber":3,"parameterNumberName":"V-component_of_WINDS"},"data":[0,0,0,0,0,0,0,0,0,0,0,0,0,0,0,0,0,0,0,0,0,0,0,0,0,0,0,0,0,0,0,0,0,0,0,0,0,0,0,0,0,0,0,0,0,0,0,0,0,0,0,0,0,0,0,0,0,0,0.0295,0.0295,0,0.0278,0.0277,0.0277,0.0286,0.0286,0.0287,0.0287,0.0267,0.0266,0.0265,0,0,0,0,0,0,0,0,0,0,0,0,0,0.0334,0.0333,0.0295,0.0295,0.0294,0.0278,0.0277,0.0277,0.0286,0.0286,0.0287,0.0287,0.0267,0.0266,0.0265,0,0,0,0,0,0,0,0,0,0,0,0,0,0.0317,0.0333,0.0295,0.0297,0.0297,0.0278,0.0277,0.0277,0.0286,0.0286,0.0287,0.0288,0.0268,0.0266,0.0265,0.0242,0,0,0.026,0.026,0,0,0,0,0,0,0,0,0.0318,0.0315,0.0297,0.0297,0.0297,0.0285,0.0284,0.0265,0.0285,0.029,0.0287,0.0288,0.0272,0.027,0.0265,0.0241,0.024,0.026,0.0259,0.0259,0.0258,0,0,0,0,0,0,0,0.0319,0.0316,0.0288,0.0296,0.0296,0.0298,0.0296,0.028,0.0277,0.0289,0.029,0.0288,0.0272,0.0267,0.0265,0.024,0.026,0.0259,0.0258,0.0257,0.0198,0.0197,0,0,0,0,0,0,0.032,0.0317,0.0288,0.0287,0.0309,0.0297,0.0295,0.0288,0.0277,0.0276,0.0287,0.0289,0.0269,0.0267,0.0264,0.0238,0.0259,0.0257,0.0256,0.0198,0.0197,0.0197,0,0,0,0,0,0,0.0321,0.0318,0.0289,0.0302,0.0299,0.0295,0.0287,0.0287,0.0282,0.0276,0.0275,0.0283,0.0269,0.0266,0.0248,0.0237,0.0257,0.0255,0.0199,0.0198,0.0197,0.0185,0,0,0,0,0,0,0.0322,0.0318,0.0309,0.0302,0.0298,0.0273,0.0287,0.0286,0.0279,0.0281,0.0271,0.027,0.027,0.025,0.0247,0.0236,0.0254,0.02,0.0199,0.0197,0.0186,0.0183,0.0181,0,0,0,0,0,0.0324,0.0305,0.0309,0.0305,0.0287,0.0273,0.027,0.0271,0.0279,0.027,0.0267,0.0271,0.0239,0.0248,0.0244,0.0233,0.0201,0.0199,0.0197,0.0187,0.0184,0.0181,0,0,0,0,0,0,0.031,0.0304,0.0308,0.0287,0.0281,0.0274,0.0263,0.0267,0.0257,0.0258,0.0259,0.0257,0.0238,0.0233,0.0243,0.0211,0.0221,0.0219,0.0215,0.0211,0.0209,0.021,0.0253,0,0,0,0,0,0.0305,0.0294,0.0289,0.0271,0.0268,0.0266,0.026,0.0261,0.0254,0.025,0.0246,0.0238,0.0226,0.0219,0.0208,0.0186,0.0184,0.0176,0.0173,0.0171,0.0169,0.0159,0.0155,0.0191,0.0191,0.0191,0,0,0.0293,0.0289,0.0282,0.0269,0.0263,0.0252,0.0264,0.025,0.0242,0.0248,0.0231,0.0227,0.0219,0.0199,0.019,0.0195,0.0159,0.0169,0.0168,0.0167,0.0157,0.0153,0.015,0.019,0.019,0.0191,0,0,0.0267,0.0262,0.0247,0.0243,0.0236,0.0235,0.0232,0.0225,0.0223,0.0207,0.0212,0.0201,0.0181,0.0175,0.017,0.0144,0.0147,0.014,0.0127,0.0116,0.0114,0.0111,0.0102,0.0099,0.0138,0.0138,0.0138,0,0.0253,0.0236,0.0239,0.0226,0.0221,0.0228,0.0213,0.0208,0.0197,0.0193,0.0199,0.0175,0.017,0.0149,0.0144,0.0138,0.0135,0.0141,0.0114,0.0111,0.0109,0.0101,0.0098,0.0137,0.0137,0.0137,0.0137,0,0.0221,0.0209,0.0198,0.0189,0.0183,0.0169,0.0169,0.0162,0.0165,0.0163,0.0147,0.0141,0.013,0.0125,0.0126,0.0105,0.0109,0.0114,0.0124,0.0105,0.0097,0.0094,0.0136,0.0136,0.0136,0.0137,0,0,0.0183,0.0178,0.0174,0.0171,0.0164,0.0155,0.0142,0.0133,0.0127,0.012,0.0109,0.0093,0.0099,0.0093,0.0094,0.0085,0.0066,0.0092,0.0092,0.0088,0.0043,0.0039,0.0036,0.0069,0.0068,0.0068,0.0044,0,0.0157,0.0135,0.0138,0.0117,0.0107,0.0115,0.0103,0.0098,0.0097,0.0089,0.0087,0.0076,0.0084,0.0081,0.0072,0.007,0.0057,0.0072,0.0059,0.0058,0.0061,0.0031,0.0027,0.0005,0.0041,0.0041,0.004,0,0.0122,0.0116,0.0094,0.0092,0.0088,0.0077,0.007,0.0061,0.0056,0.0056,0.0051,0.0054,0.0041,0.0052,0.0035,0.0045,0.004,0.0038,0.0037,0.0036,0.0048,0.003,-0.0002,-0.0005,0.0036,0.0036,0.0036,0,0.0098,0.0084,0.007,0.0067,0.0063,0.0056,0.0054,0.0049,0.0044,0.0037,0.0034,0.0025,0.0021,0.0014,0.0015,0.0023,-0.0002,0.0008,-0.0003,-0.0003,-0.0009,-0.0009,-0.0042,-0.0012,-0.0012,-0.0012,-0.0012,0,0.0068,0.0055,0.0059,0.005,0.0036,0.004,0.0025,0.0024,0.0021,0.0012,0.0017,0.0009,0.0011,0.0002,0.0003,-0.0011,-0.0013,-0.0014,-0.0013,-0.0014,-0.0014,-0.0018,-0.0016,-0.0013,-0.0013,-0.0013,-0.0012,0,0.0038,0.0041,0.0026,0.0024,0.0024,0.0013,0.0012,0.0003,0.0004,-0.0007,-0.001,-0.001,-0.0019,-0.0018,-0.003,-0.0029,-0.0046,-0.0044,-0.0044,-0.0043,-0.0054,-0.0053,-0.0091,-0.0095,-0.0063,-0.0063,-0.0064,0,0.0019,0.0009,0.0007,0.0003,0.0,-0.0008,-0.0013,-0.0009,-0.0014,-0.0019,-0.0027,-0.0035,-0.0042,-0.0057,-0.0058,-0.0066,-0.0064,-0.0077,-0.0066,-0.0066,-0.0064,-0.0063,-0.0064,-0.0079,-0.008,-0.008,-0.008,0,-0.0015,-0.0013,-0.002,-0.0025,-0.0031,-0.0036,-0.004,-0.0044,-0.0041,-0.0047,-0.0055,-0.006,-0.007,-0.0079,-0.0086,-0.0088,-0.0084,-0.0083,-0.0086,-0.0088,-0.0087,-0.0087,-0.0049,-0.0083,-0.0083,-0.0083,-0.0082,-0.0082,-0.0041,-0.0048,-0.005,-0.0057,-0.0059,-0.0063,-0.007,-0.0069,-0.0076,-0.0083,-0.008,-0.009,-0.0094,-0.0102,-0.0105,-0.0113,-0.0108,-0.0113,-0.0114,-0.0115,-0.0116,-0.0085,-0.0114,-0.0114,-0.0114,-0.0114,-0.0114,0,-0.0074,-0.0074,-0.0081,-0.0085,-0.0091,-0.0084,-0.0088,-0.0093,-0.0101,-0.0104,-0.011,-0.0119,-0.0127,-0.0128,-0.0135,-0.014,-0.0138,-0.0142,-0.0142,-0.0142,-0.012,-0.0116,-0.0144,-0.0144,-0.0144,-0.0144,-0.0144,-0.0144,-0.0092,-0.0104,-0.0102,-0.0115,-0.0115,-0.0123,-0.0126,-0.0129,-0.0131,-0.0141,-0.0146,-0.0146,-0.0148,-0.0155,-0.0161,-0.0161,-0.0164,-0.0169,-0.0168,-0.0147,-0.0144,-0.0141,-0.0138,-0.017,-0.017,-0.019,-0.019,-0.019]}]]